User: anonymous   Login
Location: Unspecified
(0.0000°N, 0.0000°E)
Time: 00:12:47
(UTC+00:00)
Language:

ESSA 8 - Orbit

View from above orbital plane
View from above orbital plane
View from above satellite
View from above satellite

Ground track
Ground track

The orbit data is extracted from the following two-line orbital elements,

1  3615U 68114A   18265.55000032 -.00000030 +00000-0 +71963-4 0  9996
2  3615 101.2860 247.1967 0032180 097.1839 009.9103 12.56200565281872
Epoch (UTC): 22 September 2018 13:12:00
Eccentricity: 0.0032180
inclination: 101.2860°
perigee height: 1413 km
apogee height: 1464 km
right ascension of ascending node: 247.1967°
argument of perigee: 97.1839°
revolutions per day: 12.56200565
mean anomaly at epoch: 9.9103°
orbit number at epoch: 28187

The dashed part of the orbit path shows where the satellite is in the earth's shadow,  

DLR